Date,TemperatureHighF,TemperatureAvgF,TemperatureLowF,DewpointHighF,DewpointAvgF,DewpointLowF,HumidityHigh,HumidityAvg,HumidityLow,PressureMaxIn,PressureMinIn,WindSpeedMaxMPH,WindSpeedAvgMPH,GustSpeedMaxMPH,PrecipitationSumIn
2013-3-1,36.7,27.7,16.3,27.3,22.9,14.4,94,82,66,30.34,30.19,11,2,0,0.00
2013-3-2,39.6,26.9,13.5,26.8,20.5,11.5,93,78,55,30.36,30.13,4,1,0,0.00
2013-3-3,53.7,41.3,29.3,40.5,32.6,25.0,86,72,58,30.13,29.55,8,3,0,0.00
2013-3-4,44.7,40.3,34.7,38.2,34.9,30.9,94,81,68,30.03,29.49,18,4,0,0.01
2013-3-5,36.5,30.8,26.0,33.8,22.7,19.1,94,72,59,30.36,30.02,13,3,0,0.00
2013-3-6,45.3,33.8,21.6,28.7,22.9,18.5,89,66,45,30.40,30.13,8,2,0,0.00
2013-3-7,66.0,48.1,32.2,33.5,28.9,24.6,76,51,27,30.13,29.92,16,5,0,0.00
2013-3-8,59.7,51.3,42.7,48.4,40.8,31.7,81,67,54,29.99,29.79,14,5,0,0.00
2013-3-9,58.8,53.5,40.4,57.3,51.3,38.8,98,92,79,29.80,29.45,14,4,0,0.55
2013-3-10,40.4,32.2,28.7,38.8,28.7,22.3,95,87,76,30.01,29.51,20,6,0,0.00
2013-3-11,49.7,34.3,21.6,31.5,22.8,18.1,86,65,34,30.01,29.92,6,2,0,0.00
2013-3-12,53.9,43.5,35.6,37.3,31.0,25.5,89,63,40,30.26,29.99,10,2,0,0.01
2013-3-16,50.2,43.9,36.3,37.9,33.9,29.6,77,68,59,29.91,29.79,22,10,0,0.00
2013-3-17,41.3,37.5,34.7,36.0,32.3,28.3,95,82,74,29.92,29.62,22,4,0,0.00
2013-3-18,58.6,44.3,35.1,37.3,30.4,21.8,96,64,25,29.97,29.69,16,2,0,0.00
2013-3-19,53.9,41.2,26.6,31.1,23.1,19.4,87,51,29,30.23,29.95,12,2,0,0.00
2013-3-20,48.2,37.4,26.7,30.2,21.9,15.1,95,58,32,30.37,29.96,14,3,0,0.00
2013-3-21,49.2,39.4,33.7,30.2,23.3,18.2,86,54,37,29.97,29.64,19,6,0,0.00
2013-3-22,48.8,37.5,30.5,35.4,31.7,28.9,95,80,59,29.91,29.78,10,3,0,0.00
2013-3-23,35.8,32.9,30.0,33.2,31.4,29.0,97,94,83,29.91,29.77,18,5,0,0.14
2013-3-24,35.3,28.4,21.7,29.2,24.1,20.5,97,85,61,30.15,29.89,18,4,0,0.04
2013-3-25,37.2,27.9,20.9,23.3,19.5,16.4,86,71,53,30.37,30.14,11,2,0,0.00
2013-3-26,48.0,32.8,15.3,28.1,21.8,13.2,93,66,42,30.42,30.17,10,2,0,0.00
2013-3-27,62.7,46.7,35.4,38.9,30.2,22.8,77,54,33,30.17,30.00,13,4,0,0.00
2013-3-28,67.6,49.3,33.3,49.5,39.7,30.8,91,72,47,30.10,29.98,8,2,0,0.00
2013-3-29,72.0,58.4,41.5,56.9,50.4,40.2,97,76,53,30.05,29.92,10,2,0,0.00
2013-3-30,74.8,59.6,51.8,60.6,54.4,49.9,95,84,51,29.92,29.75,12,2,0,0.13
2013-3-31,67.5,54.9,40.0,52.5,44.3,38.0,98,71,37,29.97,29.84,16,1,0,0.02